Starlink 32143

operational
NORAD ID: 60296 Int'l Des: 2024-132 Owner: SPXS Country: US Constellation: starlink
LEOCIRCULAR

About Starlink 32143

Description loading...

Live Position

Loading 3D Globe...

Upcoming Passes

Altitude History

Altitude vs Time

uPlot chart will show altitude changes over time

Two-Line Element Set

1 60296U 24132U 26048.68070264 .00002226 00000-0 87231-4 0 9995
2 60296 53.1599 145.6064 0001287 63.7927 296.3206 15.30217529 88497
Epoch: Feb 17, 2026 • Age: 14 hours

Current Status

Altitude 479.5 km
Velocity 7.63 km/s
Sub-Earth Point 47.23°N, 52.77°W
Launch Date Jul 28, 2024
Age 1.5 years
Type internet

Technical Details

Classification Payload
Mass 730.00 kg
Dry Mass 700.00 kg
Total Mass 730.00 kg
Length 0.30 m
Diameter 4.10 m
Span 29.00 m
Shape Box + pan
Manufacturer SPXS
Bus Type Starlink V2M
Phase Status In Orbit
Owner/State SPXS/US

Large Constellations

Loading constellations...